sat.trackr.live / text

‹ back to catalog

STARLINK-31051

NORAD 58719 · 2024-002Q

PAYLOAD ACTIVE UNKNOWN

§ Identity

Operator
Country
US
Launch date
2024-01-03
Launch site
AFWTR
Launch vehicle
Mass (kg)
RCS (m²)

Purposes: comms

External: N2YO · Heavens-Above · Gunter

§ Orbital elements

Epoch: 2026-09-20T13:18:51.945696Z

Period
93.85 min
Inclination
53.1611°
Eccentricity
0.0001197
Mean motion
15.34400608 rev/d
Perigee alt
461.9 km
Apogee alt
463.5 km
Semi-major
6,840.8 km
B*
2.7453e-4
RAAN
43.1293°
Arg perigee
59.3813°
Mean anomaly
300.7307°
Rev number
15,187

§ Raw data

STARLINK-310511 58719U 24002Q   26263.55476789  .00008910  00000+0  27453-3 0  99992 58719  53.1611  43.1293 0001197  59.3813 300.7307 15.34400608151871

JSON: /api/v1/satellites/58719 · /tle

For live sub-satellite position, see the globe view (requires WebGL).

§ Visibility from observer

Set your observer location to see the next 7 days of passes ≥ 10°. The values pass through the URL so the page stays shareable.

No JS? Fill the form by hand. The geolocation button needs JavaScript.